[[{"header":{"parameterUnit":"m.s-1","parameterCategory":2,"la1":30.2991,"la2":30.254,"lo1":-89.0895,"lo2":-89.0444,"dy":0.0017,"dx":0.0017,"nx":28,"ny":28,"refTime":"2025-04-14T03:00:00:Z","depth":"0","parameterNumber":2,"parameterNumberName":"U-component_of_CURRENTS"},"data":[0,0,0,0,0,0,0,0,0,0,0,0,0,0,0,0,0,0,0,0,0,0,0,0,0,0,0,0,0,0,0,0,0,0,0,0,0,0,0,0,0,0,0,0,0,0,0,0,0,0,0,0,0,0,0,0,0,0,0.1104,0.1105,0,0.1132,0.1133,0.1133,0.1168,0.1168,0.1169,0.1169,0.1239,0.1241,0.1242,0,0,0,0,0,0,0,0,0,0,0,0,0,0.1079,0.1079,0.1104,0.1105,0.1105,0.1132,0.1133,0.1133,0.1168,0.1168,0.1169,0.1169,0.1239,0.1241,0.1242,0,0,0,0,0,0,0,0,0,0,0,0,0,0.1098,0.1079,0.1104,0.1124,0.1126,0.1132,0.1133,0.1134,0.1168,0.1168,0.1169,0.1169,0.1238,0.124,0.1243,0.1244,0,0,0.125,0.1251,0,0,0,0,0,0,0,0,0.1097,0.1099,0.1121,0.1123,0.1125,0.1146,0.115,0.1172,0.1167,0.1153,0.1169,0.117,0.1211,0.1215,0.1221,0.1247,0.125,0.125,0.1251,0.1252,0.1253,0,0,0,0,0,0,0,0.1095,0.1098,0.1117,0.1121,0.1124,0.1131,0.1135,0.1154,0.118,0.1155,0.1157,0.1157,0.1212,0.1218,0.1223,0.1251,0.125,0.1252,0.1253,0.1254,0.135,0.1351,0,0,0,0,0,0,0.1089,0.1097,0.1116,0.1118,0.1111,0.1131,0.1135,0.114,0.1179,0.1185,0.1157,0.1159,0.1214,0.122,0.1225,0.1291,0.1252,0.1254,0.1255,0.1349,0.135,0.1352,0,0,0,0,0,0,0.1088,0.109,0.1115,0.1106,0.111,0.1131,0.1136,0.114,0.115,0.118,0.1187,0.1163,0.1215,0.1222,0.1257,0.1292,0.1255,0.1257,0.1348,0.1349,0.1351,0.1383,0,0,0,0,0,0,0.1087,0.109,0.1092,0.1106,0.111,0.113,0.1135,0.114,0.1148,0.1151,0.1187,0.1194,0.1216,0.1254,0.1259,0.1294,0.1259,0.1346,0.1348,0.1351,0.1381,0.1386,0.139,0,0,0,0,0,0.1086,0.1092,0.1092,0.1095,0.1113,0.113,0.1134,0.1151,0.1148,0.116,0.1185,0.1193,0.1273,0.1256,0.1263,0.1299,0.1345,0.1348,0.135,0.1378,0.1385,0.139,0,0,0,0,0,0,0.1087,0.1096,0.1097,0.1107,0.112,0.1136,0.1146,0.1148,0.1174,0.1178,0.1202,0.1211,0.1263,0.1268,0.1249,0.1334,0.1313,0.1317,0.1332,0.1338,0.1343,0.1365,0.1261,0,0,0,0,0,0.1085,0.1091,0.1102,0.1111,0.1116,0.1127,0.1134,0.1144,0.1165,0.1177,0.12,0.1232,0.1277,0.1295,0.1332,0.1364,0.145,0.1394,0.1398,0.1403,0.1425,0.1591,0.1614,0.1361,0.1361,0.1361,0,0,0.1086,0.1093,0.1096,0.1111,0.1121,0.1143,0.1134,0.1149,0.1176,0.118,0.1224,0.1251,0.1291,0.1344,0.1366,0.1352,0.1522,0.1406,0.1409,0.1431,0.1597,0.1622,0.1644,0.1363,0.1362,0.1362,0,0,0.1098,0.1099,0.1111,0.1124,0.1139,0.1151,0.1154,0.1171,0.119,0.1222,0.1249,0.1296,0.1336,0.1389,0.1417,0.1466,0.1547,0.147,0.151,0.167,0.1693,0.1715,0.187,0.1905,0.1467,0.1467,0.1467,0,0.1099,0.1122,0.1118,0.1138,0.116,0.1156,0.1186,0.1201,0.1229,0.1265,0.1243,0.1357,0.1369,0.1475,0.1484,0.1482,0.1588,0.1482,0.1681,0.1703,0.1725,0.1879,0.1918,0.1469,0.1468,0.1468,0.1468,0,0.1125,0.1146,0.1157,0.1186,0.1205,0.123,0.125,0.1274,0.1285,0.1314,0.1406,0.1434,0.1513,0.1515,0.1507,0.166,0.1693,0.1675,0.1671,0.1753,0.1909,0.1949,0.1471,0.1471,0.147,0.147,0,0,0.1132,0.1169,0.1176,0.1207,0.1237,0.1262,0.1305,0.1365,0.1426,0.1446,0.1549,0.1592,0.1617,0.1651,0.1664,0.1768,0.1988,0.1778,0.1786,0.1943,0.237,0.2344,0.2385,0.2019,0.2025,0.2031,0.2424,0,0.1162,0.1215,0.1226,0.1289,0.1327,0.1346,0.1398,0.1449,0.1497,0.159,0.1637,0.1734,0.1669,0.1724,0.1819,0.1955,0.2092,0.1884,0.2258,0.227,0.2245,0.2429,0.2353,0.2694,0.2463,0.247,0.2474,0,0.1196,0.1233,0.1294,0.137,0.1389,0.142,0.1527,0.1572,0.1684,0.1731,0.1826,0.1877,0.2024,0.1955,0.2256,0.2136,0.2264,0.2354,0.2372,0.2366,0.2318,0.2571,0.2775,0.2654,0.2536,0.2531,0.2526,0,0.1225,0.129,0.1346,0.1368,0.144,0.1479,0.152,0.1619,0.1695,0.1841,0.1936,0.2091,0.2208,0.2381,0.251,0.2437,0.285,0.2783,0.2893,0.2893,0.2911,0.29,0.305,0.3043,0.3042,0.3041,0.304,0,0.1267,0.1315,0.1362,0.1392,0.1476,0.1512,0.1622,0.168,0.1812,0.1943,0.2015,0.2168,0.2326,0.2537,0.2638,0.2898,0.2977,0.297,0.3018,0.2916,0.2902,0.2857,0.2753,0.3056,0.3053,0.305,0.3047,0,0.1292,0.1321,0.1389,0.1461,0.1488,0.1544,0.1658,0.175,0.1863,0.2048,0.2111,0.2313,0.2594,0.2744,0.3059,0.3091,0.3237,0.3378,0.3233,0.3255,0.3199,0.3099,0.324,0.3144,0.3616,0.3618,0.362,0,0.131,0.1347,0.1423,0.1467,0.1496,0.1583,0.1654,0.176,0.187,0.214,0.2247,0.2544,0.2731,0.3151,0.3302,0.3552,0.3373,0.3601,0.3425,0.3248,0.3176,0.299,0.2882,0.3488,0.3489,0.3489,0.3489,0,0.1351,0.1369,0.1422,0.1507,0.1574,0.1659,0.1767,0.1851,0.2015,0.2167,0.2404,0.2573,0.2967,0.3179,0.3466,0.3588,0.3397,0.3616,0.3507,0.3166,0.2912,0.2821,0.3158,0.3493,0.3493,0.3492,0.3492,0.3492,0.1384,0.1421,0.1487,0.1571,0.1636,0.1721,0.1775,0.1903,0.2052,0.226,0.2451,0.2675,0.3,0.3391,0.3485,0.3566,0.3475,0.3494,0.3425,0.3282,0.3058,0.3385,0.3694,0.3695,0.3696,0.3696,0.3697,0,0.1442,0.1482,0.1556,0.1641,0.1695,0.173,0.1848,0.1892,0.2018,0.2248,0.2421,0.2763,0.3001,0.3237,0.3442,0.337,0.3217,0.328,0.3001,0.2931,0.334,0.3193,0.3316,0.3316,0.3316,0.3316,0.3316,0.3316,0.1483,0.1558,0.1592,0.1682,0.1723,0.1775,0.1815,0.1868,0.2,0.2195,0.2382,0.2579,0.2904,0.318,0.3202,0.3143,0.2853,0.2782,0.2704,0.2962,0.2973,0.2985,0.2823,0.2867,0.2866,0.2209,0.2204,0.22]},{"header":{"parameterUnit":"m.s-1","parameterCategory":2,"la1":30.2991,"la2":30.254,"lo1":-89.0895,"lo2":-89.0444,"dy":0.0017,"dx":0.0017,"nx":28,"ny":28,"refTime":"2025-04-14T03:00:00:Z","depth":"0","parameterNumber":3,"parameterNumberName":"V-component_of_CURRENTS"},"data":[0,0,0,0,0,0,0,0,0,0,0,0,0,0,0,0,0,0,0,0,0,0,0,0,0,0,0,0,0,0,0,0,0,0,0,0,0,0,0,0,0,0,0,0,0,0,0,0,0,0,0,0,0,0,0,0,0,0,0.0093,0.0093,0,0.0079,0.0079,0.0079,0.0094,0.0095,0.0095,0.0095,0.013,0.013,0.0131,0,0,0,0,0,0,0,0,0,0,0,0,0,0.0084,0.0084,0.0093,0.0093,0.0092,0.0079,0.0079,0.0079,0.0094,0.0095,0.0095,0.0096,0.013,0.013,0.0131,0,0,0,0,0,0,0,0,0,0,0,0,0,0.0083,0.0085,0.0093,0.0097,0.0097,0.0079,0.0079,0.0079,0.0094,0.0095,0.0095,0.0096,0.013,0.013,0.0131,0.0124,0,0,0.0134,0.0134,0,0,0,0,0,0,0,0,0.0083,0.0083,0.0096,0.0096,0.0096,0.0087,0.0089,0.0096,0.0094,0.0097,0.0095,0.0096,0.0119,0.012,0.0118,0.0126,0.0127,0.0134,0.0134,0.0135,0.0135,0,0,0,0,0,0,0,0.0083,0.0084,0.0089,0.0096,0.0096,0.0082,0.0084,0.009,0.0107,0.0097,0.0097,0.0093,0.0119,0.0117,0.0119,0.0128,0.0134,0.0134,0.0135,0.0135,0.012,0.0119,0,0,0,0,0,0,0.0083,0.0084,0.009,0.0089,0.0089,0.0082,0.0084,0.0091,0.0106,0.0108,0.0092,0.0093,0.0116,0.0118,0.0121,0.0127,0.0135,0.0135,0.0136,0.0121,0.012,0.0119,0,0,0,0,0,0,0.0083,0.0084,0.009,0.0084,0.0083,0.0082,0.009,0.0091,0.0088,0.0101,0.0105,0.0089,0.0116,0.012,0.0124,0.0128,0.0136,0.0136,0.0122,0.012,0.0119,0.0132,0,0,0,0,0,0,0.0083,0.0084,0.0084,0.0084,0.0084,0.0082,0.0089,0.009,0.0084,0.0085,0.01,0.0104,0.0117,0.0122,0.0124,0.013,0.0137,0.0123,0.0121,0.012,0.0133,0.0131,0.013,0,0,0,0,0,0.0083,0.0083,0.0085,0.0085,0.0086,0.0082,0.0081,0.0082,0.0083,0.0082,0.0089,0.0103,0.0113,0.0122,0.0125,0.0131,0.0124,0.0122,0.012,0.0133,0.0131,0.013,0,0,0,0,0,0,0.0082,0.0085,0.0087,0.0089,0.0085,0.0084,0.0079,0.0078,0.008,0.0084,0.0096,0.0101,0.0106,0.0107,0.0117,0.0117,0.0119,0.0117,0.0128,0.0126,0.0125,0.0154,0.0138,0,0,0,0,0,0.008,0.008,0.0082,0.0081,0.0081,0.0078,0.0074,0.0076,0.0078,0.0079,0.0087,0.0091,0.0097,0.0104,0.0107,0.0109,0.0144,0.011,0.0109,0.0108,0.013,0.0191,0.0199,0.0112,0.0112,0.0112,0,0,0.0079,0.0079,0.0079,0.008,0.0078,0.008,0.0078,0.0074,0.0078,0.0083,0.0089,0.0089,0.0095,0.01,0.0101,0.0105,0.0143,0.0105,0.0105,0.0128,0.019,0.02,0.0208,0.0111,0.0111,0.0111,0,0,0.0075,0.0078,0.0079,0.0077,0.0073,0.0075,0.0073,0.0071,0.0075,0.0075,0.008,0.0084,0.0085,0.0098,0.0103,0.0092,0.0133,0.0082,0.0107,0.0166,0.0175,0.0183,0.0219,0.0231,0.0084,0.0084,0.0084,0,0.0075,0.0083,0.0076,0.0076,0.0082,0.0073,0.0083,0.0079,0.0077,0.0096,0.0079,0.0102,0.009,0.0124,0.0108,0.0095,0.0131,0.0118,0.0169,0.0178,0.0187,0.0222,0.0235,0.0084,0.0084,0.0084,0.0084,0,0.0075,0.0082,0.0082,0.0087,0.0087,0.0094,0.0093,0.0097,0.0097,0.0106,0.0134,0.0123,0.0152,0.0127,0.0111,0.0159,0.0165,0.0163,0.0185,0.0198,0.0232,0.0245,0.0085,0.0085,0.0085,0.0085,0,0,0.0092,0.0086,0.0089,0.0108,0.0101,0.0114,0.0116,0.0142,0.0184,0.0162,0.023,0.0191,0.0205,0.021,0.0197,0.0221,0.0278,0.0214,0.0217,0.027,0.0408,0.035,0.0359,0.0299,0.0302,0.0304,0.0401,0,0.0106,0.0121,0.0109,0.0137,0.0159,0.0156,0.0173,0.019,0.0213,0.0272,0.0266,0.0318,0.0233,0.0269,0.0273,0.0304,0.0318,0.0252,0.0371,0.0374,0.0339,0.0374,0.0309,0.0386,0.0415,0.0417,0.0418,0,0.0127,0.014,0.0165,0.0204,0.0214,0.0221,0.0288,0.0302,0.036,0.0391,0.043,0.045,0.0485,0.0418,0.0464,0.0435,0.0415,0.0414,0.0418,0.0378,0.0342,0.0379,0.0409,0.017,0.0439,0.0438,0.0436,0,0.0177,0.0193,0.0223,0.0229,0.0255,0.0275,0.0293,0.0341,0.0412,0.049,0.059,0.06,0.0681,0.0649,0.0609,0.0566,0.0671,0.0618,0.054,0.0535,0.051,0.0498,0.0345,0.0648,0.0648,0.0647,0.0647,0,0.022,0.0253,0.0249,0.027,0.0338,0.0326,0.0421,0.0445,0.0544,0.0693,0.0668,0.0818,0.0753,0.0798,0.07,0.0673,0.0746,0.0565,0.0569,0.0505,0.0492,0.0306,0.02,0.0651,0.065,0.0649,0.0649,0,0.0291,0.0274,0.0329,0.0351,0.0363,0.0417,0.0513,0.0611,0.0675,0.0883,0.0937,0.1033,0.109,0.0991,0.0979,0.0834,0.0662,0.0739,0.0649,0.0638,0.0302,0.02,0.0145,0.0073,0.0679,0.0678,0.0678,0,0.0339,0.0365,0.0401,0.0456,0.047,0.0544,0.0624,0.0675,0.0816,0.1044,0.119,0.1287,0.1397,0.1308,0.1061,0.088,0.0688,0.0684,0.056,0.0287,0.0178,0.0118,0.0057,0.053,0.0528,0.0527,0.0526,0,0.0463,0.046,0.0511,0.0611,0.0688,0.0793,0.0914,0.1041,0.1174,0.1345,0.1602,0.1691,0.158,0.1386,0.108,0.0914,0.05,0.0647,0.041,0.0087,-0.0025,-0.0095,0.044,0.0513,0.0514,0.0515,0.0516,0.0516,0.059,0.0653,0.0722,0.0826,0.0914,0.1078,0.1197,0.1367,0.1591,0.1866,0.1903,0.2035,0.1647,0.1223,0.0959,0.0359,0.0427,0.0157,0.0074,0.0051,-0.0082,0.0402,0.0439,0.044,0.0441,0.0441,0.0442,0,0.0781,0.0842,0.095,0.1085,0.1217,0.1217,0.1434,0.1574,0.1853,0.2048,0.2216,0.204,0.1553,0.103,0.0244,-0.0155,-0.0281,-0.038,-0.0506,-0.0525,-0.0059,-0.0139,-0.0283,-0.0283,-0.0282,-0.0282,-0.0282,-0.0282,0.0908,0.1051,0.1091,0.1347,0.1435,0.1621,0.1746,0.1935,0.2085,0.2284,0.2298,0.2283,0.1773,0.0402,-0.0534,-0.0718,-0.098,-0.1036,-0.1113,-0.0876,-0.0834,-0.0794,-0.09,-0.12,-0.1202,-0.1563,-0.1568,-0.1571]}],[{"header":{"parameterUnit":"m.s-1","parameterCategory":2,"la1":30.2991,"la2":30.254,"lo1":-89.0895,"lo2":-89.0444,"dy":0.0017,"dx":0.0017,"nx":28,"ny":28,"refTime":"2025-04-14T03:00:00:Z","depth":"2","parameterNumber":2,"parameterNumberName":"U-component_of_CURRENTS"},"data":[0,0,0,0,0,0,0,0,0,0,0,0,0,0,0,0,0,0,0,0,0,0,0,0,0,0,0,0,0,0,0,0,0,0,0,0,0,0,0,0,0,0,0,0,0,0,0,0,0,0,0,0,0,0,0,0,0,0,0.1122,0.1122,0,0.1133,0.1133,0.1133,0.1157,0.1158,0.1159,0.1159,0.1187,0.1187,0.1188,0,0,0,0,0,0,0,0,0,0,0,0,0,0.1099,0.1099,0.1122,0.1122,0.1122,0.1133,0.1133,0.1133,0.1157,0.1158,0.1159,0.1159,0.1187,0.1187,0.1188,0,0,0,0,0,0,0,0,0,0,0,0,0,0.1109,0.1099,0.1122,0.1136,0.1137,0.1133,0.1133,0.1133,0.1157,0.1158,0.1159,0.116,0.1187,0.1187,0.1188,0.1175,0,0,0.1189,0.1189,0,0,0,0,0,0,0,0,0.1109,0.111,0.1134,0.1135,0.1136,0.1145,0.1135,0.1148,0.1157,0.1149,0.1159,0.116,0.1174,0.1176,0.1175,0.1176,0.1177,0.1189,0.1189,0.1189,0.1189,0,0,0,0,0,0,0,0.1108,0.1109,0.1126,0.1134,0.1135,0.1134,0.1136,0.1138,0.1157,0.115,0.1152,0.1153,0.1175,0.1175,0.1176,0.1178,0.1189,0.1189,0.119,0.119,0.1244,0.1245,0,0,0,0,0,0,0.1107,0.1109,0.1126,0.1126,0.1124,0.1134,0.1136,0.1141,0.1157,0.116,0.1153,0.1154,0.1174,0.1176,0.1177,0.1223,0.1189,0.119,0.119,0.1243,0.1244,0.1246,0,0,0,0,0,0,0.1107,0.1109,0.1125,0.1118,0.112,0.1133,0.1138,0.1141,0.1146,0.1159,0.1162,0.1155,0.1175,0.1177,0.119,0.1223,0.119,0.119,0.1242,0.1243,0.1245,0.1277,0,0,0,0,0,0,0.1106,0.1109,0.1111,0.1118,0.112,0.1131,0.1138,0.1141,0.1145,0.1148,0.1162,0.1165,0.1175,0.1189,0.119,0.1222,0.1191,0.124,0.1242,0.1245,0.1274,0.1279,0.1284,0,0,0,0,0,0.1105,0.111,0.1111,0.1113,0.1124,0.1131,0.1132,0.1144,0.1144,0.115,0.1161,0.1165,0.1206,0.119,0.1191,0.1224,0.1239,0.1242,0.1244,0.1272,0.1278,0.1284,0,0,0,0,0,0,0.1103,0.1113,0.1115,0.1122,0.1129,0.1136,0.1141,0.1142,0.1153,0.1157,0.1166,0.117,0.1203,0.1202,0.1184,0.1248,0.1228,0.1231,0.1249,0.1255,0.126,0.1287,0.1191,0,0,0,0,0,0.1102,0.1108,0.1115,0.1121,0.1125,0.1129,0.1133,0.114,0.1149,0.1154,0.1164,0.1183,0.1213,0.1222,0.1243,0.126,0.1303,0.1287,0.1292,0.1296,0.132,0.1417,0.1434,0.1255,0.1255,0.1255,0,0,0.1101,0.1108,0.1111,0.1121,0.1126,0.1141,0.1134,0.1142,0.1162,0.1155,0.1183,0.1197,0.1222,0.1258,0.1272,0.126,0.1367,0.13,0.1303,0.1325,0.1422,0.144,0.1456,0.1257,0.1256,0.1256,0,0,0.1108,0.1111,0.112,0.1129,0.1139,0.1146,0.1148,0.1156,0.117,0.1188,0.1205,0.1239,0.1258,0.1297,0.1317,0.1357,0.1392,0.136,0.1404,0.1497,0.1513,0.1528,0.1594,0.1614,0.136,0.136,0.136,0,0.1107,0.1127,0.1123,0.1139,0.1157,0.115,0.1173,0.1182,0.1195,0.1226,0.1205,0.1288,0.1288,0.1371,0.1382,0.1371,0.1422,0.1376,0.1506,0.1521,0.1536,0.16,0.1622,0.1362,0.1362,0.1361,0.1361,0,0.1126,0.1145,0.1152,0.1176,0.1189,0.1206,0.1222,0.1238,0.1248,0.1273,0.1345,0.1356,0.1419,0.1416,0.1405,0.1513,0.1514,0.1503,0.1493,0.1557,0.1619,0.1641,0.1364,0.1364,0.1363,0.1363,0,0,0.1126,0.116,0.1165,0.1194,0.1215,0.1234,0.1268,0.1318,0.1372,0.1383,0.147,0.1499,0.1522,0.1547,0.1549,0.1606,0.1725,0.1595,0.1599,0.1663,0.1929,0.1858,0.1876,0.1744,0.1749,0.1752,0.1926,0,0.1148,0.1194,0.1203,0.1256,0.1288,0.1304,0.1347,0.1391,0.143,0.1507,0.1543,0.1619,0.1569,0.161,0.1664,0.1723,0.1789,0.1679,0.1856,0.1861,0.1794,0.1902,0.1722,0.1857,0.1949,0.1952,0.1955,0,0.1174,0.1206,0.126,0.1328,0.1344,0.1372,0.1464,0.1503,0.1598,0.1636,0.1716,0.1751,0.1847,0.1786,0.1941,0.1878,0.1913,0.194,0.1947,0.1893,0.1834,0.1811,0.1895,0.1993,0.199,0.1987,0.1985,0,0.1197,0.1253,0.1304,0.1323,0.1389,0.1425,0.1464,0.155,0.1614,0.1733,0.1813,0.1913,0.2004,0.2062,0.2098,0.2046,0.2262,0.2201,0.2174,0.2169,0.2057,0.2034,0.2328,0.2328,0.2328,0.2327,0.2327,0,0.1229,0.1271,0.132,0.1348,0.1426,0.1463,0.1559,0.1611,0.1722,0.1835,0.1892,0.2011,0.2085,0.2196,0.2187,0.2264,0.2348,0.2222,0.2229,0.2058,0.2034,0.2177,0.2158,0.2334,0.2332,0.2331,0.233,0,0.1246,0.1277,0.1337,0.1408,0.1436,0.149,0.1592,0.1671,0.1776,0.1931,0.1982,0.2145,0.2298,0.2346,0.2471,0.2406,0.2453,0.2452,0.2228,0.2205,0.2272,0.2251,0.2459,0.2459,0.2458,0.2458,0.2457,0,0.1257,0.1292,0.1367,0.141,0.144,0.1523,0.1588,0.1682,0.1774,0.2009,0.2096,0.2299,0.24,0.2545,0.2497,0.2503,0.253,0.2328,0.2183,0.2309,0.2296,0.2276,0.2257,0.2049,0.2045,0.2042,0.2039,0,0.1278,0.1301,0.1347,0.143,0.1494,0.1571,0.167,0.1738,0.1887,0.2013,0.2205,0.2299,0.2455,0.2399,0.2404,0.2357,0.2299,0.2265,0.2526,0.2021,0.1931,0.1913,0.1907,0.2013,0.2015,0.2017,0.2019,0.202,0.1285,0.1322,0.138,0.1455,0.1525,0.1599,0.1631,0.1741,0.1852,0.1969,0.2135,0.2189,0.2242,0.2149,0.2111,0.2076,0.2193,0.2069,0.2076,0.2086,0.1986,0.1897,0.1954,0.1956,0.1958,0.196,0.1961,0,0.1307,0.1354,0.1411,0.1479,0.1517,0.1577,0.1674,0.1673,0.1745,0.1848,0.1917,0.1772,0.1771,0.1855,0.176,0.1737,0.1678,0.168,0.1603,0.1632,0.1657,0.153,0.1381,0.1379,0.1377,0.1376,0,0,0.1325,0.1371,0.1393,0.1442,0.1492,0.151,0.1538,0.1535,0.1576,0.1515,0.1506,0.1589,0.1759,0.152,0.1511,0.1458,0.152,0.1392,0.1859,0.1797,0.1819,0.1887,0.1726,0,0,0,0,0]},{"header":{"parameterUnit":"m.s-1","parameterCategory":2,"la1":30.2991,"la2":30.254,"lo1":-89.0895,"lo2":-89.0444,"dy":0.0017,"dx":0.0017,"nx":28,"ny":28,"refTime":"2025-04-14T03:00:00:Z","depth":"2","parameterNumber":3,"parameterNumberName":"V-component_of_CURRENTS"},"data":[0,0,0,0,0,0,0,0,0,0,0,0,0,0,0,0,0,0,0,0,0,0,0,0,0,0,0,0,0,0,0,0,0,0,0,0,0,0,0,0,0,0,0,0,0,0,0,0,0,0,0,0,0,0,0,0,0,0,-0.022,-0.022,0,-0.0214,-0.0214,-0.0214,-0.0202,-0.0201,-0.0201,-0.0201,-0.0306,-0.0309,-0.0312,0,0,0,0,0,0,0,0,0,0,0,0,0,-0.0208,-0.0209,-0.022,-0.022,-0.022,-0.0214,-0.0214,-0.0214,-0.0202,-0.0201,-0.0201,-0.02,-0.0305,-0.0308,-0.0312,0,0,0,0,0,0,0,0,0,0,0,0,0,-0.021,-0.0209,-0.022,-0.0212,-0.0212,-0.0214,-0.0214,-0.0214,-0.0202,-0.0201,-0.0201,-0.02,-0.0303,-0.0308,-0.0312,-0.0351,0,0,-0.0327,-0.0329,0,0,0,0,0,0,0,0,-0.021,-0.021,-0.0214,-0.0213,-0.0212,-0.0207,-0.0248,-0.0265,-0.0202,-0.0207,-0.0201,-0.02,-0.0283,-0.0289,-0.0289,-0.0356,-0.036,-0.0327,-0.033,-0.0332,-0.0333,0,0,0,0,0,0,0,-0.021,-0.021,-0.0219,-0.0214,-0.0213,-0.0204,-0.0204,-0.0251,-0.025,-0.0206,-0.0205,-0.0203,-0.0283,-0.0284,-0.0291,-0.0362,-0.0327,-0.0331,-0.0334,-0.0336,-0.0409,-0.0409,0,0,0,0,0,0,-0.021,-0.0211,-0.0219,-0.0219,-0.0209,-0.0205,-0.0205,-0.021,-0.0247,-0.0251,-0.0203,-0.0202,-0.0276,-0.0286,-0.0295,-0.0309,-0.0332,-0.0336,-0.0339,-0.041,-0.0409,-0.0408,0,0,0,0,0,0,-0.021,-0.0211,-0.0219,-0.0213,-0.0213,-0.0206,-0.0212,-0.021,-0.0202,-0.0244,-0.025,-0.0195,-0.0276,-0.0289,-0.0314,-0.0314,-0.0338,-0.0343,-0.0411,-0.041,-0.0409,-0.0359,0,0,0,0,0,0,-0.021,-0.0211,-0.021,-0.0213,-0.0214,-0.0212,-0.0212,-0.021,-0.0201,-0.02,-0.0239,-0.0249,-0.0277,-0.0306,-0.0318,-0.0321,-0.0346,-0.0412,-0.0411,-0.0409,-0.0362,-0.0356,-0.0352,0,0,0,0,0,-0.0209,-0.0205,-0.0211,-0.0211,-0.0215,-0.0212,-0.0211,-0.0205,-0.0201,-0.0196,-0.0212,-0.0247,-0.0305,-0.031,-0.0324,-0.0328,-0.0413,-0.0411,-0.0409,-0.0364,-0.0357,-0.0352,0,0,0,0,0,0,-0.0194,-0.0203,-0.0209,-0.0207,-0.0208,-0.0209,-0.02,-0.02,-0.0208,-0.0206,-0.0244,-0.0254,-0.0273,-0.0305,-0.0309,-0.0341,-0.0363,-0.0363,-0.0323,-0.0318,-0.0313,-0.0303,-0.035,0,0,0,0,0,-0.0194,-0.0198,-0.0202,-0.0203,-0.0199,-0.02,-0.0197,-0.0195,-0.0203,-0.0203,-0.0232,-0.0258,-0.0278,-0.03,-0.0325,-0.0355,-0.0384,-0.0363,-0.0358,-0.0353,-0.0352,-0.0377,-0.0374,-0.0402,-0.0402,-0.0402,0,0,-0.0188,-0.0195,-0.0196,-0.02,-0.0199,-0.0195,-0.0196,-0.0188,-0.0184,-0.0219,-0.0224,-0.0245,-0.0279,-0.0297,-0.0309,-0.0326,-0.0362,-0.0351,-0.0347,-0.0349,-0.0375,-0.0372,-0.037,-0.0401,-0.0401,-0.0401,0,0,-0.018,-0.0184,-0.0183,-0.0183,-0.0181,-0.0183,-0.0179,-0.018,-0.0175,-0.0184,-0.0199,-0.0212,-0.0258,-0.0274,-0.0289,-0.0275,-0.0328,-0.0286,-0.0266,-0.0289,-0.0287,-0.0286,-0.0328,-0.0331,-0.0291,-0.0291,-0.0291,0,-0.0171,-0.0174,-0.018,-0.0178,-0.0172,-0.0177,-0.0167,-0.0167,-0.0177,-0.0168,-0.0179,-0.0208,-0.0244,-0.0253,-0.0246,-0.0266,-0.0294,-0.0288,-0.0283,-0.0283,-0.0282,-0.0326,-0.033,-0.0288,-0.0289,-0.0289,-0.0289,0,-0.0165,-0.0162,-0.0157,-0.0162,-0.0158,-0.0148,-0.0149,-0.0145,-0.0143,-0.0139,-0.0137,-0.0172,-0.0184,-0.0201,-0.0226,-0.0236,-0.0262,-0.0269,-0.03,-0.0277,-0.0324,-0.0329,-0.0285,-0.0286,-0.0286,-0.0287,0,0,-0.0151,-0.0152,-0.015,-0.014,-0.0144,-0.0134,-0.013,-0.0113,-0.0087,-0.0106,-0.0081,-0.0119,-0.0121,-0.0139,-0.0169,-0.0202,-0.0232,-0.0237,-0.0239,-0.0282,-0.03,-0.0361,-0.0373,-0.024,-0.024,-0.024,-0.0338,0,-0.0139,-0.0127,-0.0135,-0.0116,-0.0099,-0.0103,-0.0089,-0.0077,-0.0066,-0.0046,-0.0068,-0.006,-0.0101,-0.0102,-0.0138,-0.0189,-0.0241,-0.0206,-0.0314,-0.0318,-0.0377,-0.0379,-0.031,-0.0395,-0.0343,-0.0344,-0.0345,0,-0.0124,-0.0116,-0.0094,-0.007,-0.0062,-0.0055,-0.0017,-0.0007,0.0015,0.003,0.0032,0.0019,-0.001,-0.0056,-0.0147,-0.012,-0.0213,-0.0274,-0.0279,-0.0356,-0.0388,-0.0409,-0.0407,-0.0354,-0.0353,-0.0352,-0.0352,0,-0.0095,-0.0081,-0.0058,-0.0053,-0.0034,-0.0017,-0.0005,0.0023,0.0056,0.0078,0.0118,0.0078,0.0083,-0.0026,-0.0151,-0.0144,-0.0274,-0.0274,-0.0428,-0.0434,-0.0409,-0.0412,-0.0374,-0.0374,-0.0374,-0.0373,-0.0373,0,-0.0068,-0.0048,-0.0038,-0.0024,0.0024,0.002,0.0079,0.0092,0.0125,0.0188,0.0166,0.0195,0.0092,0.001,-0.0131,-0.0294,-0.0259,-0.0432,-0.0463,-0.0391,-0.0392,-0.0377,-0.0376,-0.0377,-0.0376,-0.0375,-0.0375,0,-0.0034,-0.0032,-0.0001,0.0022,0.0041,0.0073,0.0129,0.0168,0.0209,0.0285,0.0297,0.029,0.0198,0.0048,-0.0128,-0.025,-0.0421,-0.051,-0.0434,-0.0455,-0.0572,-0.0567,-0.0657,-0.066,-0.0662,-0.0664,-0.0666,0,-0.0019,0.0003,0.0037,0.0072,0.0086,0.0139,0.018,0.0206,0.0261,0.0342,0.0383,0.0326,0.0261,-0.0016,-0.021,-0.047,-0.0506,-0.0598,-0.0578,-0.058,-0.06,-0.0591,-0.0583,-0.0525,-0.0526,-0.0526,-0.0526,0,0.0018,0.0029,0.0056,0.0118,0.0161,0.0219,0.0283,0.0315,0.037,0.0413,0.0434,0.0369,0.0198,-0.0013,-0.0331,-0.0495,-0.0541,-0.0616,-0.0623,-0.0473,-0.0466,-0.0483,-0.0477,-0.0529,-0.0529,-0.0529,-0.0529,-0.0529,0.0036,0.0067,0.0102,0.0157,0.0215,0.0262,0.0284,0.0347,0.0373,0.0456,0.0438,0.0412,0.0243,-0.013,-0.0381,-0.0587,-0.0603,-0.0676,-0.067,-0.0664,-0.064,-0.0639,-0.0731,-0.0732,-0.0733,-0.0734,-0.0734,0,0.004,0.0086,0.0142,0.0176,0.0206,0.0263,0.0332,0.0348,0.0342,0.0489,0.0491,0.0356,0.0119,-0.0069,-0.0362,-0.0609,-0.0581,-0.0682,-0.0569,-0.0566,-0.0563,-0.0529,-0.0594,-0.0594,-0.0594,-0.0594,0,0,0.0046,0.0079,0.0097,0.0133,0.0178,0.0214,0.0233,0.0287,0.0393,0.0465,0.0538,0.0544,0.0267,0.0087,-0.0216,-0.0384,-0.0421,-0.0426,-0.0517,-0.0345,-0.0338,-0.0545,-0.0489,0,0,0,0,0]}],[{"header":{"parameterUnit":"m.s-1","parameterCategory":2,"la1":30.2991,"la2":30.254,"lo1":-89.0895,"lo2":-89.0444,"dy":0.0017,"dx":0.0017,"nx":28,"ny":28,"refTime":"2025-04-14T03:00:00:Z","depth":"4","parameterNumber":2,"parameterNumberName":"U-component_of_CURRENTS"},"data":[0,0,0,0,0,0,0,0,0,0,0,0,0,0,0,0,0,0,0,0,0,0,0,0,0,0,0,0,0,0,0,0,0,0,0,0,0,0,0,0,0,0,0,0,0,0,0,0,0,0,0,0,0,0,0,0,0,0,0.0669,0.0669,0,0.0632,0.0631,0.063,0.062,0.0621,0.0622,0.0622,0.0627,0.0627,0.0626,0,0,0,0,0,0,0,0,0,0,0,0,0,0.0653,0.0653,0.0669,0.0669,0.0669,0.0632,0.0631,0.063,0.062,0.0621,0.0622,0.0622,0.0627,0.0627,0.0626,0,0,0,0,0,0,0,0,0,0,0,0,0,0.0638,0.0654,0.0669,0.0663,0.0663,0.0632,0.0631,0.063,0.062,0.0621,0.0622,0.0623,0.0628,0.0627,0.0626,0.0602,0,0,0.0624,0.0624,0,0,0,0,0,0,0,0,0.0639,0.0638,0.0664,0.0664,0.0663,0.0636,0.0627,0.0624,0.062,0.0631,0.0622,0.0623,0.0636,0.0635,0.0619,0.0603,0.0603,0.0624,0.0624,0.0623,0.0623,0,0,0,0,0,0,0,0.064,0.0639,0.065,0.0664,0.0663,0.0636,0.0635,0.0626,0.0626,0.063,0.0631,0.0634,0.0636,0.0619,0.0619,0.0603,0.0624,0.0623,0.0623,0.0623,0.0647,0.0648,0,0,0,0,0,0,0.0657,0.0641,0.0651,0.0649,0.0658,0.0636,0.0635,0.064,0.0625,0.0625,0.0633,0.0633,0.062,0.062,0.0619,0.0684,0.0623,0.0623,0.0622,0.0646,0.0647,0.0648,0,0,0,0,0,0,0.0657,0.0659,0.0652,0.0647,0.0645,0.0636,0.0641,0.0639,0.0646,0.0627,0.0627,0.0647,0.0621,0.062,0.0638,0.0681,0.0622,0.0622,0.0645,0.0646,0.0648,0.0754,0,0,0,0,0,0,0.0657,0.0659,0.0669,0.0649,0.0647,0.0656,0.0641,0.0637,0.0648,0.0648,0.0639,0.0639,0.0621,0.0639,0.0637,0.0679,0.0621,0.0643,0.0645,0.0647,0.0749,0.0759,0.0767,0,0,0,0,0,0.0656,0.0663,0.0669,0.0671,0.0661,0.0657,0.0653,0.0645,0.0648,0.0655,0.0654,0.0641,0.0651,0.0639,0.0637,0.0679,0.0642,0.0645,0.0647,0.0745,0.0757,0.0767,0,0,0,0,0,0,0.0654,0.0663,0.0669,0.0678,0.0681,0.0658,0.0659,0.066,0.066,0.067,0.0651,0.0651,0.0682,0.066,0.0648,0.069,0.0645,0.0647,0.072,0.0731,0.0741,0.0723,0.0621,0,0,0,0,0,0.0662,0.0674,0.0677,0.0685,0.0689,0.068,0.0679,0.0683,0.068,0.0681,0.068,0.0679,0.0683,0.0693,0.0686,0.0708,0.0682,0.0732,0.0742,0.075,0.0733,0.0746,0.0756,0.0656,0.0656,0.0656,0,0,0.0663,0.067,0.0676,0.0687,0.0683,0.0683,0.0681,0.0693,0.0707,0.0683,0.0706,0.0711,0.0694,0.0722,0.0735,0.0716,0.0766,0.0753,0.076,0.0738,0.075,0.076,0.0768,0.0658,0.0658,0.0657,0,0,0.0663,0.0679,0.0688,0.0694,0.0709,0.0702,0.0715,0.0719,0.074,0.0768,0.0755,0.0783,0.079,0.0787,0.0785,0.0836,0.0812,0.0848,0.0888,0.0903,0.0911,0.0918,0.0908,0.0913,0.0857,0.0857,0.0858,0,0.0664,0.0673,0.0689,0.0697,0.0703,0.0714,0.0723,0.0737,0.0753,0.0785,0.0793,0.0821,0.0816,0.0841,0.0863,0.0859,0.0855,0.0854,0.0916,0.0922,0.0927,0.0915,0.0919,0.0863,0.0862,0.0862,0.0861,0,0.0667,0.0677,0.0681,0.0695,0.0707,0.0716,0.0743,0.0779,0.0815,0.0837,0.0899,0.0897,0.0914,0.093,0.0914,0.0955,0.0936,0.0927,0.0892,0.0944,0.0927,0.093,0.0871,0.0869,0.0867,0.0866,0,0,0.0648,0.0678,0.0678,0.0693,0.0711,0.0723,0.0766,0.0811,0.085,0.0902,0.0951,0.0982,0.1001,0.0997,0.0993,0.1007,0.1052,0.0992,0.099,0.0987,0.1077,0.1075,0.1076,0.107,0.1071,0.1071,0.1055,0,0.0639,0.0658,0.0676,0.0692,0.0701,0.0741,0.0774,0.0831,0.0884,0.0936,0.0984,0.1022,0.1022,0.1046,0.1064,0.1053,0.1062,0.1055,0.1019,0.1017,0.1014,0.1081,0.1074,0.1056,0.1057,0.1057,0.1057,0,0.0628,0.0643,0.0665,0.0708,0.0718,0.0736,0.081,0.0849,0.0932,0.0987,0.1048,0.1068,0.1108,0.1094,0.1113,0.1117,0.1099,0.1086,0.1085,0.104,0.102,0.0988,0.1061,0.1061,0.106,0.106,0.106,0,0.0606,0.0634,0.0657,0.0667,0.0714,0.0758,0.0796,0.0876,0.0933,0.1022,0.1075,0.1115,0.1157,0.1148,0.115,0.1136,0.1157,0.1131,0.1101,0.11,0.1057,0.1049,0.1125,0.1125,0.1125,0.1125,0.1125,0,0.0582,0.0598,0.0656,0.0666,0.0708,0.0761,0.0823,0.0884,0.0971,0.1032,0.1102,0.1136,0.1179,0.1201,0.1167,0.1162,0.1179,0.1109,0.1104,0.1102,0.11,0.1059,0.1051,0.1124,0.1125,0.1125,0.1125,0,0.055,0.0583,0.0608,0.0671,0.0698,0.0738,0.0836,0.0877,0.0984,0.1064,0.1101,0.1182,0.1222,0.1246,0.1234,0.1202,0.1173,0.1157,0.1156,0.115,0.1089,0.1087,0.1107,0.1107,0.1107,0.1107,0.1107,0,0.0536,0.0547,0.0606,0.0626,0.0657,0.0727,0.0765,0.0873,0.0919,0.1068,0.1088,0.1184,0.1225,0.121,0.1229,0.1202,0.1183,0.1161,0.1116,0.1098,0.1091,0.1089,0.1088,0.1107,0.1107,0.1107,0.1107,0,0.0497,0.0523,0.0543,0.0584,0.0624,0.0665,0.0736,0.0767,0.0895,0.1005,0.1069,0.1113,0.1168,0.1173,0.1202,0.1159,0.1174,0.1159,0.1158,0.1115,0.1098,0.1091,0.1089,0.1107,0.1107,0.1107,0.1107,0,0.0463,0.0466,0.0495,0.0527,0.0582,0.0598,0.0634,0.0697,0.0765,0.0945,0.0947,0.1053,0.114,0.115,0.1144,0.1158,0.1121,0.1066,0.1068,0.1069,0.1072,0.1046,0.104,0,0,0,0,0,0.0423,0.0421,0.0439,0.0455,0.0508,0.0537,0.0615,0.0653,0.0778,0.0808,0.0893,0.094,0.1007,0.1035,0.1038,0.1106,0.1106,0.1105,0.1037,0.1106,0.1106,0.1119,0,0,0,0,0,0,0.0393,0.0406,0.041,0.0404,0.041,0.0442,0.0491,0.0555,0.0579,0.0723,0.0749,0.0887,0.0936,0.0996,0.1017,0.1034,0.0975,0.118,0.1178,0.1106,0.1106,0.1106,0.1119,0,0,0,0,0]},{"header":{"parameterUnit":"m.s-1","parameterCategory":2,"la1":30.2991,"la2":30.254,"lo1":-89.0895,"lo2":-89.0444,"dy":0.0017,"dx":0.0017,"nx":28,"ny":28,"refTime":"2025-04-14T03:00:00:Z","depth":"4","parameterNumber":3,"parameterNumberName":"V-component_of_CURRENTS"},"data":[0,0,0,0,0,0,0,0,0,0,0,0,0,0,0,0,0,0,0,0,0,0,0,0,0,0,0,0,0,0,0,0,0,0,0,0,0,0,0,0,0,0,0,0,0,0,0,0,0,0,0,0,0,0,0,0,0,0,-0.0221,-0.0221,0,-0.0206,-0.0206,-0.0205,-0.0224,-0.0225,-0.0225,-0.0226,-0.0348,-0.0351,-0.0353,0,0,0,0,0,0,0,0,0,0,0,0,0,-0.0232,-0.0232,-0.0221,-0.0221,-0.0221,-0.0206,-0.0206,-0.0205,-0.0224,-0.0225,-0.0226,-0.0227,-0.0348,-0.035,-0.0353,0,0,0,0,0,0,0,0,0,0,0,0,0,-0.0222,-0.0232,-0.0221,-0.0229,-0.023,-0.0206,-0.0206,-0.0205,-0.0223,-0.0225,-0.0226,-0.0227,-0.0347,-0.035,-0.0354,-0.0352,0,0,-0.0365,-0.0367,0,0,0,0,0,0,0,0,-0.0223,-0.0221,-0.0228,-0.0229,-0.023,-0.0219,-0.0255,-0.0262,-0.0223,-0.0224,-0.0226,-0.0228,-0.0318,-0.0324,-0.0314,-0.0358,-0.0363,-0.0366,-0.0368,-0.0369,-0.037,0,0,0,0,0,0,0,-0.0223,-0.0222,-0.0213,-0.0228,-0.0229,-0.0223,-0.0223,-0.0255,-0.0266,-0.0224,-0.0226,-0.0226,-0.0319,-0.0311,-0.0318,-0.0365,-0.0365,-0.0369,-0.0371,-0.0373,-0.0457,-0.0457,0,0,0,0,0,0,-0.0229,-0.0223,-0.0214,-0.0213,-0.0231,-0.0222,-0.0222,-0.022,-0.0262,-0.0269,-0.0225,-0.0227,-0.0304,-0.0313,-0.0323,-0.0372,-0.0369,-0.0373,-0.0375,-0.0457,-0.0457,-0.0457,0,0,0,0,0,0,-0.0229,-0.0228,-0.0214,-0.0219,-0.0217,-0.0221,-0.0218,-0.0219,-0.0222,-0.0262,-0.0272,-0.0229,-0.0305,-0.0317,-0.0351,-0.0375,-0.0375,-0.0378,-0.0457,-0.0457,-0.0457,-0.044,0,0,0,0,0,0,-0.0229,-0.0228,-0.0229,-0.0219,-0.0217,-0.0204,-0.0217,-0.0218,-0.022,-0.0223,-0.0268,-0.028,-0.0307,-0.0345,-0.0355,-0.038,-0.0381,-0.0457,-0.0457,-0.0457,-0.044,-0.0439,-0.0438,0,0,0,0,0,-0.023,-0.0223,-0.0229,-0.0228,-0.0219,-0.0204,-0.0202,-0.0207,-0.0219,-0.0215,-0.0244,-0.0279,-0.0353,-0.0348,-0.0359,-0.0386,-0.0457,-0.0457,-0.0457,-0.0441,-0.0439,-0.0438,0,0,0,0,0,0,-0.0227,-0.0224,-0.0231,-0.0224,-0.0218,-0.0208,-0.0205,-0.0209,-0.0223,-0.0238,-0.0274,-0.0286,-0.033,-0.0351,-0.0344,-0.0408,-0.0413,-0.0415,-0.0397,-0.0396,-0.0395,-0.0388,-0.0384,0,0,0,0,0,-0.0228,-0.0223,-0.0219,-0.0214,-0.0212,-0.021,-0.0206,-0.0213,-0.0223,-0.0229,-0.0254,-0.0292,-0.0335,-0.0359,-0.0392,-0.0421,-0.0443,-0.0446,-0.0445,-0.0444,-0.0445,-0.0502,-0.0507,-0.0457,-0.0457,-0.0457,0,0,-0.0226,-0.0223,-0.0222,-0.0214,-0.0211,-0.019,-0.021,-0.0209,-0.0197,-0.0244,-0.0242,-0.0292,-0.0341,-0.0376,-0.0398,-0.0399,-0.0463,-0.0444,-0.0443,-0.0445,-0.0503,-0.0508,-0.0512,-0.0457,-0.0457,-0.0457,0,0,-0.0212,-0.0219,-0.0208,-0.0199,-0.0198,-0.0188,-0.0189,-0.0183,-0.0191,-0.0201,-0.0239,-0.0292,-0.0336,-0.0374,-0.0403,-0.0414,-0.0458,-0.0435,-0.0427,-0.0482,-0.0487,-0.0492,-0.0498,-0.0503,-0.0433,-0.0433,-0.0433,0,-0.0212,-0.0194,-0.0202,-0.0184,-0.0173,-0.0184,-0.0163,-0.0161,-0.0167,-0.0188,-0.0203,-0.0295,-0.0335,-0.0395,-0.04,-0.0415,-0.0439,-0.043,-0.0482,-0.0488,-0.0493,-0.0498,-0.0504,-0.0432,-0.0433,-0.0433,-0.0433,0,-0.0184,-0.017,-0.0161,-0.0138,-0.0127,-0.0112,-0.011,-0.0113,-0.0133,-0.0151,-0.0219,-0.0274,-0.0337,-0.0362,-0.0388,-0.045,-0.0451,-0.0477,-0.0487,-0.0497,-0.0501,-0.0508,-0.0431,-0.0432,-0.0432,-0.0432,0,0,-0.018,-0.0147,-0.0144,-0.0128,-0.0104,-0.0092,-0.0079,-0.0083,-0.0093,-0.0139,-0.0169,-0.0257,-0.0315,-0.035,-0.0402,-0.0448,-0.0496,-0.0478,-0.0482,-0.0484,-0.0592,-0.0541,-0.0543,-0.0544,-0.0546,-0.0548,-0.057,0,-0.0154,-0.0114,-0.0101,-0.0057,-0.0035,-0.0039,-0.0018,-0.0035,-0.0066,-0.0094,-0.0193,-0.0245,-0.0301,-0.0348,-0.0408,-0.0481,-0.0519,-0.0485,-0.0581,-0.0582,-0.0539,-0.0552,-0.0553,-0.0575,-0.0577,-0.0578,-0.0579,0,-0.013,-0.0104,-0.0064,-0.0024,-0.0016,0.0009,0.0011,0.0022,-0.003,-0.0068,-0.0157,-0.0221,-0.0313,-0.0351,-0.0487,-0.047,-0.0529,-0.0576,-0.0579,-0.0546,-0.0546,-0.057,-0.0591,-0.059,-0.0589,-0.0588,-0.0588,0,-0.013,-0.0078,-0.0046,-0.0031,0.0013,0.0017,0.0033,0.001,0.0007,-0.0064,-0.0091,-0.021,-0.0272,-0.0381,-0.0487,-0.0499,-0.0613,-0.0639,-0.064,-0.0635,-0.0682,-0.0677,-0.0725,-0.0725,-0.0725,-0.0725,-0.0725,0,-0.0106,-0.0084,-0.0047,-0.003,0.0004,0.0021,0.0038,0.0026,0.0007,0.0001,-0.0091,-0.0124,-0.029,-0.0373,-0.0472,-0.0569,-0.0608,-0.0636,-0.0648,-0.0668,-0.0662,-0.0685,-0.068,-0.0726,-0.0726,-0.0726,-0.0726,0,-0.0119,-0.009,-0.0055,-0.0011,0.0003,0.0015,0.0056,0.0064,0.0042,0.0032,0.0009,-0.0079,-0.0184,-0.0315,-0.0469,-0.0535,-0.0635,-0.0654,-0.0627,-0.0637,-0.0617,-0.0611,-0.0659,-0.0657,-0.0656,-0.0655,-0.0654,0,-0.0123,-0.0107,-0.0054,-0.0034,-0.0016,0.0015,0.0043,0.0062,0.0082,0.0067,0.0066,-0.0026,-0.0095,-0.0255,-0.0404,-0.0564,-0.0592,-0.0629,-0.0663,-0.0608,-0.0615,-0.0611,-0.0607,-0.0652,-0.0652,-0.0652,-0.0652,0,-0.0139,-0.0125,-0.0098,-0.0051,-0.0017,0.004,0.0086,0.0116,0.0145,0.0124,0.012,0.0031,-0.0068,-0.0219,-0.0338,-0.0462,-0.0604,-0.0618,-0.0622,-0.0654,-0.0601,-0.0609,-0.0606,-0.0648,-0.0648,-0.0648,-0.0649,0,-0.0166,-0.0152,-0.0115,-0.0067,-0.0024,0.0053,0.0092,0.0145,0.0176,0.0183,0.0182,0.0068,-0.0005,-0.0163,-0.0277,-0.0389,-0.0427,-0.0466,-0.0479,-0.0485,-0.0438,-0.0346,-0.0323,0,0,0,0,0,-0.0193,-0.0169,-0.0129,-0.0054,-0.0003,0.0041,0.0115,0.016,0.0206,0.0216,0.0209,0.0125,-0.0033,-0.0108,-0.021,-0.0277,-0.0462,-0.0399,-0.0517,-0.0625,-0.063,-0.0601,0,0,0,0,0,0,-0.0212,-0.0189,-0.0139,-0.0054,0.0007,0.0087,0.0143,0.0188,0.0212,0.0227,0.0146,0.0107,-0.0054,0.0022,-0.0212,-0.0247,-0.0331,-0.0479,-0.0481,-0.0623,-0.0627,-0.0631,-0.0602,0,0,0,0,0]}]]